Regional Weather Roundup
Issued by NWS

Home | Current Version | Previous Version | Graphics & Text | Print | Product List | Glossary On
Versions: 1 2 3 4 5 6 7 8 9 10 11 12 13 14 15 16 17 18 19 20 21 22 23 24 25 26 27 28 29 30 31 32 33 34 35 36 37 38 39 40 41 42 43 44 45 46 47 48 49 50
000
ASUS43 KTOP 201259
RWRKS

WEATHER ROUNDUP FOR KANSAS
NATIONAL WEATHER SERVICE GOODLAND KS
800 AM CDT FRI OCT 20 2017

NOTE:  "FAIR" INDICATES FEW OR NO CLOUDS BELOW 12,000 FEET WITH NO
SIGNIFICANT WEATHER AND/OR OBSTRUCTIONS TO VISIBILITY.

KSZ001>006-013>018-027>032-041>047-201400-
NORTHWEST KANSAS

CITY           SKY/WX    TMP DP  RH WIND       PRES   REMARKS
GOODLAND       CLOUDY    52  50  93 S17       29.75F
HAYS           MOCLDY    58  50  75 S14       29.87F
HILL CITY      PTCLDY    56  49  77 VRB7      29.84F
RUSSELL        PTCLDY    58  53  84 S20       29.88F
$$

KSZ061>065-074>080-084>089-201400-
SOUTHWEST KANSAS

CITY           SKY/WX    TMP DP  RH WIND       PRES   REMARKS
DODGE CITY     CLEAR     54  50  86 S16       29.88F
ELKHART          N/A     53  52  97 S10         N/A
GARDEN CITY    CLOUDY    55  47  74 SE14      29.84F
GREAT BEND     CLEAR     58  52  80 S20       29.91F
LIBERAL        CLEAR     57  50  77 S16       29.88S
$$

KSZ066>073-081>083-090>101-201400-
SOUTHEAST KANSAS

CITY           SKY/WX    TMP DP  RH WIND       PRES   REMARKS
CHANUTE        PTCLDY    56  51  84 S9        30.09F
COFFEYVILLE    CLEAR     54  51  90 S7        30.09F
HUTCHINSON     CLEAR     58  54  86 S14       29.97F
MEDICINE LODGE   N/A     58  52  80 SE8       29.95F
NEWTON         CLEAR     57  53  86 S17       30.00F
PARSONS        CLEAR     58  52  80 VRB6      30.10F
WICHITA INTL   PTCLDY    59  55  87 S17G24    29.99F
WICHITA JABRA  PTCLDY    58  55  90 S14       30.00F
WICHITA MCCONL CLOUDY    58  52  83 S14G22    30.00F
WINFIELD       CLOUDY    58  55  90 SE10      30.04F
$$

KSZ007>012-019>026-033>040-048>060-102>105-201400-
NORTHEAST KANSAS

CITY           SKY/WX    TMP DP  RH WIND       PRES   REMARKS
CONCORDIA      CLEAR     56  52  86 S16       29.92F
EMPORIA        PTCLDY    56  51  84 S16       30.03F
LAWRENCE       PTCLDY    55  52  89 SE8       30.06F
MANHATTAN      CLEAR     59  53  80 S7        29.99F
OLATHE IND     PTCLDY    55  51  86 S8        30.08F
OLATHE EXE     MOCLDY    53  50  89 S6        30.08F
SALINA         CLEAR     61  54  77 S17G25    29.95S
TOPEKA BILLARD PTCLDY    55  52  89 SE5       30.04S
TOPEKA FORBES  CLOUDY    59  53  80 S13       30.04F
$$




USA.gov is the U.S. government's official web portal to all federal, state and local government web resources and services.